Wind_Speed
20 25 28 29 28 28 27 27 28 27 26 27 28 27 26 25 25 23 24 24 23 22 21 20 18 17 15 14 13 12 11 10 8 8 7 7 7 8 8 8 7 7 6 6 5 4 2 0 2 1 1 3 3 3 3 4 5 4 3 2 2 4 4 5 6 6 6 5 5 5 5 6 5 3 3 3 4 4 4 2 2 3 4 4 3
18 22 26 29 28 28 28 27 29 29 28 29 29 28 27 26 26 24 24 24 23 22 21 20 19 18 17 15 14 13 12 11 10 9 8 7 8 8 8 8 7 7 6 6 5 5 4 2 2 2 1 1 2 1 2 3 2 2 3 2 2 5 5 6 7 6 5 5 5 5 5 5 4 3 2 2 3 3 4 3 1 3 5 5 4
15 20 24 28 29 30 29 28 30 30 29 30 29 29 28 26 26 25 24 24 23 22 21 21 19 18 17 15 14 13 13 12 10 10 9 8 9 9 8 8 8 8 7 7 7 6 5 3 3 3 2 1 1 1 2 2 2 1 2 3 2 4 5 6 6 3 4 5 4 3 4 5 3 3 2 2 4 3 2 3 2 3 6 5 3
16 20 22 26 29 30 29 28 30 30 29 30 30 30 29 27 27 26 25 24 23 22 21 20 19 17 16 15 14 12 11 12 11 10 10 9 9 10 10 9 9 8 8 8 8 7 6 5 4 4 3 2 2 1 2 2 3 2 2 3 3 2 4 7 5 2 3 4 3 2 3 3 3 5 6 3 5 5 3 3 3 3 6 5 3
17 20 21 24 27 30 30 29 30 31 30 31 32 31 29 28 28 27 25 24 23 22 21 20 19 18 16 14 14 12 10 12 12 11 11 10 10 10 11 11 10 9 9 9 8 8 7 7 5 4 4 4 3 2 2 3 3 2 2 3 4 3 4 6 6 4 3 3 1 2 1 2 1 3 6 2 2 4 5 4 4 4 6 6 3
15 19 20 22 26 29 31 30 31 31 31 31 32 31 29 29 29 28 26 25 24 23 23 21 20 19 18 16 16 15 13 13 13 12 12 12 11 11 11 12 12 11 10 9 9 8 8 8 7 6 5 5 5 3 2 2 3 3 2 2 3 3 3 4 6 5 5 3 2 2 1 0 1 3 3 1 5 4 1 6 6 4 7 8 5
14 16 19 22 26 28 30 31 32 32 32 31 31 31 30 30 30 29 27 25 24 24 25 23 21 20 21 19 18 18 16 14 14 13 12 12 11 11 11 12 12 12 11 10 9 9 8 8 7 7 6 6 5 4 4 3 3 4 3 2 2 3 4 4 5 5 5 4 4 4 4 1 2 1 1 3 1 4 3 3 8 4 4 7 7
15 17 20 22 25 28 30 32 32 32 32 32 31 32 31 31 31 30 27 26 25 25 26 25 23 22 22 21 19 18 17 15 14 13 12 11 11 11 12 12 13 13 12 11 10 10 9 8 8 8 7 6 5 5 5 3 2 4 3 3 2 3 4 3 4 4 4 5 3 4 5 2 1 1 2 2 2 2 1 3 6 4 2 3 4
17 18 20 22 25 30 33 33 32 32 32 32 32 32 32 31 31 31 28 27 26 27 27 26 24 23 22 21 20 19 18 16 15 14 13 12 11 11 11 11 12 13 13 12 11 11 10 9 9 9 8 7 6 5 5 3 2 3 3 3 3 3 4 4 3 3 2 4 5 3 2 4 4 3 4 2 4 1 1 3 5 4 2 4 2
18 19 20 22 28 32 33 33 33 32 31 32 31 31 32 31 31 32 30 28 28 29 29 27 25 24 23 22 21 19 18 17 15 15 15 14 13 13 13 12 12 13 14 13 12 12 11 10 10 9 9 8 7 6 5 5 4 4 4 4 4 3 4 4 4 4 2 2 6 4 1 2 3 2 4 5 1 1 2 2 3 1 2 6 2
16 18 19 21 27 32 32 32 33 32 30 31 31 31 32 32 32 33 32 29 29 30 30 29 27 24 23 23 22 21 20 18 17 16 16 16 16 15 14 14 13 13 13 14 14 13 12 12 11 10 10 9 8 7 6 6 6 6 5 5 5 4 4 4 5 5 4 2 4 6 5 4 4 3 3 1 2 1 3 3 3 6 4 2 1
14 15 15 17 22 28 30 31 32 31 31 31 31 31 32 32 33 33 32 31 30 31 30 30 28 26 24 23 23 23 22 20 19 18 17 18 18 17 16 15 15 14 14 14 14 14 14 13 12 11 10 10 9 8 7 7 6 6 6 6 6 6 5 5 5 5 5 5 5 6 6 6 6 5 3 2 2 1 2 4 4 4 2 2 0
16 13 12 14 19 22 26 29 31 31 31 32 32 32 32 32 33 34 34 33 32 31 31 31 29 27 25 24 24 23 23 22 21 20 19 18 18 18 17 16 16 16 15 15 15 15 15 14 13 13 12 11 10 9 8 7 7 6 7 7 6 6 6 6 6 6 6 6 5 6 6 6 5 5 4 4 4 4 3 5 4 3 3 2 1
16 15 14 15 17 20 25 29 30 31 32 33 33 33 32 32 34 34 34 33 32 32 32 31 30 28 27 25 24 24 23 23 22 21 20 19 18 18 18 18 17 17 17 16 15 15 15 15 15 14 13 12 11 10 9 8 8 7 7 7 7 7 7 7 7 7 7 7 6 4 5 5 4 4 4 4 3 5 5 4 2 3 5 4 2
15 16 17 17 19 22 26 29 31 32 33 33 33 33 32 32 34 35 34 34 33 32 32 32 31 29 28 26 25 24 23 23 22 22 21 21 19 19 19 19 18 17 18 17 16 16 16 15 15 15 14 13 12 11 10 9 9 8 8 8 8 8 7 8 8 7 7 7 7 5 5 5 3 3 4 4 4 4 3 2 2 2 4 4 3
18 16 16 16 19 23 25 28 30 31 33 33 33 33 33 32 34 35 35 35 34 33 33 32 31 29 28 28 26 24 23 23 22 22 22 22 21 20 20 20 19 17 17 18 17 17 17 16 16 16 15 15 14 13 12 11 10 10 9 9 9 8 8 8 8 8 8 8 7 7 6 5 4 4 5 4 4 3 3 2 2 2 3 3 3
20 18 16 16 19 23 26 28 30 31 32 33 34 34 34 33 34 35 35 34 34 34 33 32 31 30 29 28 27 25 24 24 23 23 23 22 21 20 20 20 20 18 17 18 18 18 18 18 17 16 16 15 15 14 13 12 12 11 10 10 10 9 9 9 9 8 8 8 8 8 8 7 6 5 5 5 4 3 3 3 4 4 3 3 3
21 20 20 19 19 23 27 29 31 33 34 35 36 35 35 34 34 35 36 35 35 34 32 32 32 31 30 29 28 26 25 24 24 24 23 23 22 22 21 20 20 20 19 18 19 19 19 19 18 17 17 17 16 15 14 13 13 12 11 11 10 9 9 9 9 9 9 8 8 8 8 7 7 7 7 6 5 5 5 5 5 5 5 5 5
20 19 18 18 17 21 26 29 31 33 34 35 36 35 34 34 34 35 36 36 35 34 32 32 32 31 30 30 30 28 26 25 24 23 23 23 23 22 22 21 20 21 20 19 20 20 19 19 19 18 17 17 17 16 15 15 14 13 12 12 11 10 10 10 10 10 9 9 9 8 8 8 7 7 8 7 7 7 7 7 6 6 7 7 7
17 18 17 16 15 19 25 28 31 33 33 34 35 35 35 34 34 34 34 34 34 33 33 33 33 31 29 29 30 28 27 26 25 24 23 24 24 23 22 22 21 21 21 21 21 21 21 20 19 18 18 18 18 17 16 16 15 14 13 12 11 11 11 11 10 11 10 10 9 9 9 9 8 8 8 8 8 8 8 8 7 8 8 8 9
16 17 17 16 16 19 23 26 29 31 32 32 34 35 35 35 34 34 34 34 34 34 33 33 32 31 30 31 30 30 28 27 25 25 24 24 24 23 23 22 21 21 21 22 22 22 22 22 20 20 19 19 19 18 17 17 16 15 14 13 12 13 13 11 11 11 11 10 10 10 10 10 9 9 9 9 9 9 9 9 9 9 9 9 10
17 17 18 17 16 19 21 23 26 28 30 32 33 34 34 34 34 35 35 35 35 35 34 33 33 32 32 32 32 31 30 28 27 26 26 25 24 24 23 22 22 22 22 22 23 22 22 22 21 21 20 20 19 19 18 18 17 16 16 14 13 14 14 13 12 12 12 11 11 11 11 11 10 11 11 11 10 10 10 11 11 10 10 10 10
18 18 19 17 16 20 24 25 27 28 30 32 32 33 34 35 35 35 35 36 35 35 34 33 32 32 33 32 32 31 30 30 29 28 27 26 25 24 24 23 23 23 22 23 23 23 22 22 22 21 21 20 20 20 19 18 18 18 17 16 15 15 15 15 14 13 13 13 12 12 12 12 11 12 12 12 12 11 11 11 11 10 11 11 11
19 18 18 18 18 19 20 22 25 26 28 31 31 32 33 34 34 35 36 37 36 34 34 33 33 33 33 32 32 31 31 31 30 29 28 28 26 25 25 24 24 24 23 23 23 22 23 23 22 22 21 21 21 21 20 19 19 19 18 18 17 16 16 16 16 15 14 14 13 13 13 13 12 13 13 13 12 12 11 11 12 11 12 12 12
16 16 17 20 20 17 15 17 21 25 27 30 31 31 32 33 34 35 35 36 35 34 34 33 33 33 33 33 33 32 32 32 32 30 29 29 28 27 26 25 25 25 24 24 23 23 23 23 23 23 22 22 22 21 21 20 20 19 19 19 18 17 17 17 16 16 15 15 15 15 14 14 14 14 14 13 13 13 12 12 12 12 12 13 12
16 15 16 17 14 13 14 15 21 26 28 29 30 31 32 33 34 34 34 35 35 34 34 34 33 33 34 34 34 33 33 33 33 31 30 30 29 28 27 26 26 26 26 25 24 24 23 24 24 23 23 23 22 22 21 20 20 20 19 19 18 18 18 17 17 17 16 16 16 16 15 15 15 15 14 14 14 13 13 13 13 13 13 12 12
11 10 11 11 12 13 14 16 22 27 27 28 30 31 30 31 33 33 32 34 35 34 35 34 33 33 34 35 35 35 34 34 33 32 30 30 29 29 28 27 26 26 26 26 25 24 24 24 24 24 23 23 23 22 22 21 20 20 20 20 19 19 18 18 18 18 18 18 17 17 17 16 16 16 15 15 14 14 14 14 14 13 13 13 13
6 4 5 7 11 15 16 16 22 27 27 28 29 29 29 29 30 31 32 33 34 35 35 35 34 33 34 35 36 35 34 33 33 32 31 29 29 29 28 27 26 26 27 27 26 25 24 24 24 24 23 23 23 22 22 22 21 21 20 20 19 19 19 19 18 18 18 18 18 18 18 18 18 18 17 16 15 14 14 14 14 13 13 13 13
6 5 5 7 9 12 15 16 20 24 26 27 27 28 28 28 29 30 31 32 33 34 35 35 34 34 34 35 34 33 33 33 32 32 31 30 29 29 28 27 27 26 26 26 26 26 25 24 24 24 24 23 23 23 23 23 22 22 21 20 20 20 19 19 18 18 18 18 18 18 18 18 18 19 19 19 18 16 15 14 13 13 13 13 14
4 4 1 4 8 10 13 14 17 20 23 24 25 27 28 28 30 30 30 31 33 33 34 34 34 34 33 33 33 32 33 33 33 33 32 31 29 29 29 28 28 26 26 26 26 26 26 25 24 24 24 24 23 24 25 26 25 23 22 21 20 20 20 19 19 18 18 18 18 18 18 18 18 18 19 20 21 21 20 18 15 13 12 12 13
10 10 10 7 4 8 11 12 14 18 22 24 24 26 28 29 29 30 31 31 32 33 34 34 34 33 32 32 33 32 32 33 34 33 33 32 30 29 29 29 28 27 26 26 26 27 26 25 25 25 24 24 24 24 26 29 28 26 24 21 20 20 20 20 19 19 18 18 18 19 18 18 18 19 20 21 24 25 25 24 23 20 19 17 16
10 9 10 10 8 6 8 12 15 19 22 23 24 25 27 28 29 30 31 31 31 32 33 32 31 31 32 33 33 32 32 33 33 33 33 32 31 29 29 29 29 28 27 26 26 27 27 25 25 25 25 24 24 25 27 30 31 30 28 23 20 20 20 20 20 20 19 19 19 19 19 18 18 18 20 21 24 26 26 26 25 24 23 22 22
11 11 10 9 9 8 7 8 13 18 22 24 25 26 26 28 30 31 31 31 31 31 31 31 30 30 32 33 33 33 32 32 33 32 32 32 31 30 29 30 29 28 27 27 26 26 26 26 25 25 25 24 24 25 28 30 31 32 31 28 23 20 20 20 20 20 20 20 19 19 19 18 18 18 18 19 20 21 21 22 21 21 21 21 21
10 12 13 11 9 9 11 13 13 15 21 24 25 26 27 27 28 29 30 30 30 30 30 31 30 30 31 32 32 32 32 32 32 31 31 32 31 30 29 29 29 28 27 27 27 26 26 26 25 24 24 24 24 25 28 30 31 31 32 31 27 21 19 20 20 19 20 20 19 19 19 18 18 18 18 18 18 18 17 17 18 19 20 21 20
11 12 13 13 12 11 11 14 16 16 18 23 25 26 26 26 27 28 30 30 30 30 30 31 30 30 31 32 32 32 31 31 32 31 31 31 31 30 29 28 28 28 28 27 27 26 26 26 26 25 24 23 24 25 27 29 31 30 30 32 30 23 19 19 19 19 19 19 19 19 18 18 18 18 18 19 18 17 15 15 16 16 18 18 18
12 13 14 14 16 16 15 15 16 17 19 21 25 27 27 27 28 29 30 30 30 29 30 31 31 31 31 32 32 32 31 31 32 32 31 31 31 30 30 28 27 27 26 25 25 26 26 26 26 26 25 24 23 24 25 27 29 29 29 30 30 25 21 19 18 18 19 19 19 19 19 19 19 19 20 21 20 18 15 14 15 15 16 16 17
15 17 17 19 21 21 19 18 17 17 20 21 24 28 28 27 28 28 29 31 30 30 31 32 32 32 32 33 32 32 31 31 32 32 31 31 30 30 29 28 26 26 26 25 25 25 25 25 26 26 26 25 24 25 25 26 27 27 28 29 29 24 21 21 19 19 19 20 20 21 20 19 20 20 20 21 22 21 18 16 15 15 16 16 17
18 20 21 21 24 23 20 20 20 19 20 22 24 27 28 27 28 29 29 31 31 31 32 33 33 33 33 33 33 32 32 32 32 32 31 30 29 29 29 28 27 26 26 26 25 24 24 25 26 27 27 26 25 27 28 28 28 28 28 29 27 23 21 20 19 19 19 20 21 23 23 22 21 21 21 21 22 22 20 18 17 16 16 17 17
22 22 23 24 26 25 21 21 23 21 20 23 24 26 28 28 28 30 30 31 32 34 34 34 34 33 32 33 33 32 31 31 31 31 30 30 29 28 27 27 26 26 26 25 25 24 24 25 25 26 27 27 26 27 30 30 30 30 31 29 26 22 20 19 19 19 19 20 21 23 25 27 26 23 22 21 22 22 21 18 17 16 16 16 16
25 26 26 28 28 24 21 22 22 21 21 22 24 26 28 28 29 30 30 32 34 35 34 33 32 32 31 32 32 32 31 31 30 30 29 28 28 26 26 26 26 25 25 25 25 24 24 24 24 25 27 27 26 26 29 31 32 33 33 32 27 22 21 20 19 19 19 19 21 22 24 28 30 28 27 26 25 25 23 19 17 16 16 15 14
26 27 28 29 26 22 21 22 21 19 20 22 24 26 26 27 28 29 30 33 34 33 32 31 31 31 31 31 31 31 31 30 29 29 28 27 27 26 26 26 25 24 24 24 25 25 24 24 24 24 25 26 27 26 27 30 32 33 34 34 29 23 21 20 19 19 19 19 20 21 22 24 27 28 28 28 28 29 28 25 21 18 17 16 15
27 29 29 28 24 21 22 22 19 18 18 20 23 23 23 25 27 29 31 31 31 31 31 31 31 31 31 31 30 30 30 29 28 28 27 26 26 26 26 25 24 24 24 23 24 24 23 23 23 23 23 24 25 26 26 27 30 32 33 34 31 26 22 21 19 19 20 20 20 20 20 22 23 23 23 23 23 25 28 29 27 24 22 20 19
26 28 30 27 22 20 21 20 18 16 16 20 23 22 21 24 27 29 30 29 28 30 31 30 30 30 30 29 29 30 29 27 27 28 27 26 26 25 25 25 24 23 22 22 22 22 22 22 21 22 22 21 22 25 27 28 28 29 32 33 33 29 25 23 21 20 20 20 20 20 20 20 21 21 20 19 19 20 22 25 25 23 22 21 21
25 29 30 26 21 20 20 18 17 16 15 19 22 20 19 23 26 26 25 25 27 29 30 29 29 30 29 28 28 29 28 27 26 28 27 26 26 25 24 24 23 22 21 21 21 20 20 21 20 20 21 21 20 21 26 28 28 28 30 31 32 32 29 27 23 20 19 19 19 20 20 21 21 21 19 18 18 18 18 19 18 17 17 18 19
27 29 27 23 21 20 17 15 16 15 15 17 19 19 19 20 23 24 23 24 26 28 28 28 28 28 28 27 27 27 27 26 25 27 27 26 26 25 24 23 23 22 21 21 21 21 20 20 20 19 19 20 20 20 23 27 28 28 29 30 31 31 32 32 28 22 19 18 17 16 16 16 17 18 18 17 17 16 15 15 14 14 15 16 16
28 27 22 19 18 16 13 11 12 12 15 16 17 19 20 20 21 22 23 23 25 26 26 26 27 27 27 26 26 25 25 25 25 25 25 25 25 24 23 23 23 22 22 21 21 21 21 20 19 19 19 19 20 20 21 24 28 30 29 30 31 31 32 34 32 27 22 18 15 13 11 10 11 14 15 15 15 14 14 14 14 15 15 14 14
27 24 19 16 14 10 6 6 8 6 7 14 18 19 19 20 21 23 24 23 24 25 24 24 24 25 25 25 25 24 24 23 24 24 22 22 23 23 23 23 23 23 22 21 21 21 21 21 20 19 19 19 20 20 19 21 27 31 31 30 31 32 32 34 36 34 28 21 16 14 13 11 11 13 15 15 15 15 14 14 15 16 14 12 13
28 24 18 14 11 8 5 5 6 8 6 3 10 16 19 20 22 24 25 23 23 23 23 23 23 23 23 24 24 24 23 22 23 22 21 22 23 23 23 23 24 23 22 22 22 22 22 21 20 20 19 18 19 20 20 20 24 30 33 32 31 33 34 36 37 35 30 23 18 16 16 15 14 14 15 15 15 15 14 14 14 14 13 12 12
27 24 19 15 11 8 6 5 5 7 8 6 2 6 14 20 23 24 24 24 23 23 22 22 22 22 22 22 22 23 22 22 21 20 19 19 21 23 22 22 23 24 23 23 22 22 22 22 20 19 19 19 19 22 23 22 22 25 28 29 30 32 33 34 34 33 27 22 19 18 17 17 17 17 16 16 16 16 16 15 14 15 15 13 12
28 26 20 15 12 10 9 8 8 8 7 6 5 2 5 13 19 22 23 24 23 22 22 22 22 22 22 22 22 22 22 22 21 20 19 18 17 18 19 20 22 25 25 24 22 21 21 21 20 19 21 21 20 21 23 23 22 22 23 23 24 25 26 28 32 31 26 22 23 23 20 20 21 20 19 18 17 16 16 16 16 16 16 14 14
27 26 19 14 13 11 12 12 11 11 11 8 5 3 2 5 11 16 21 24 23 21 22 22 21 21 22 22 21 21 22 22 20 20 20 18 16 15 15 16 19 23 24 23 22 20 20 21 20 20 21 19 16 17 19 20 20 21 22 22 20 18 19 22 28 31 28 24 23 23 21 21 22 21 20 20 18 17 17 17 16 16 14 13 15
Wind_Direction
182 186 187 184 183 181 181 179 179 180 177 176 175 176 177 174 176 175 175 176 173 174 177 179 178 180 183 183 182 183 185 186 187 188 185 176 164 161 169 173 174 179 192 193 188 205 234 143 123 185 175 108 93 82 76 79 87 85 95 144 137 114 123 140 138 128 121 122 127 122 107 104 106 110 130 126 118 123 116 92 109 129 128 140 142
183 186 188 186 184 183 182 180 180 180 177 177 177 177 178 176 177 176 175 178 178 178 180 182 183 183 185 188 186 185 187 190 192 193 194 176 165 172 176 180 184 185 194 193 189 193 204 227 176 199 238 112 123 127 81 81 99 94 114 166 135 111 114 127 133 137 139 143 146 143 130 124 131 138 147 153 140 131 131 120 118 131 118 121 135
190 187 188 188 186 184 182 182 182 180 178 178 178 178 178 178 178 177 177 179 180 180 181 183 186 187 187 190 190 189 188 193 195 190 197 185 170 180 184 184 190 193 199 196 197 198 197 210 199 198 206 184 203 163 100 107 130 108 137 155 122 112 115 124 147 170 141 138 146 161 156 145 153 164 161 172 154 129 131 133 93 99 108 110 134
194 190 189 190 188 185 183 182 182 181 179 179 179 178 179 179 177 178 179 180 181 181 182 184 185 186 189 191 194 197 188 189 195 189 195 195 178 182 190 192 194 199 203 200 204 203 197 203 210 208 192 193 215 145 112 151 153 158 158 127 93 100 121 130 150 162 99 124 152 206 193 150 161 171 163 181 171 139 119 120 111 118 116 113 147
194 193 192 190 189 187 184 182 182 182 182 181 181 180 180 179 177 178 180 181 182 181 181 181 181 181 185 187 193 201 191 183 191 190 190 196 192 188 192 196 198 201 204 204 206 202 198 200 202 206 194 195 210 195 187 184 163 156 146 127 129 141 130 127 141 142 110 112 202 277 0 82 52 131 142 202 251 146 146 151 145 165 148 140 172
199 196 196 193 190 187 183 184 184 184 184 183 183 182 181 180 178 178 180 181 182 181 179 178 178 179 181 183 187 193 193 186 190 193 189 194 201 196 192 195 199 202 204 205 206 202 199 200 200 205 203 198 204 214 216 195 167 149 142 150 157 149 126 124 142 144 125 140 237 245 125 180 42 58 91 28 316 317 188 154 146 181 172 155 173
200 199 201 198 192 187 184 185 186 185 185 183 184 184 182 180 179 178 179 181 181 180 178 177 179 181 183 187 188 190 193 193 192 197 196 196 202 201 194 194 199 202 204 204 205 204 202 202 204 205 207 204 202 211 223 211 167 144 150 162 142 127 126 139 151 138 135 176 210 182 177 299 33 36 52 112 239 316 335 162 147 164 204 171 171
194 198 203 201 193 189 186 186 187 186 183 183 185 185 184 181 180 179 178 180 181 180 179 180 181 183 186 190 193 195 198 198 196 199 202 200 201 201 197 194 197 203 205 203 203 204 204 203 204 207 210 207 202 209 224 223 145 133 159 166 150 147 148 166 168 142 153 174 179 186 172 125 49 282 33 52 234 166 158 216 145 124 267 172 158
193 197 201 201 195 191 187 185 188 187 184 185 186 185 184 182 181 180 180 180 181 181 181 183 184 185 187 191 195 199 202 202 199 199 202 201 199 200 200 195 196 202 204 203 203 204 204 204 204 207 210 207 204 210 211 206 172 162 179 177 173 177 166 176 180 165 188 156 150 222 201 143 183 190 120 176 274 71 155 210 134 136 202 120 100
192 198 200 201 198 193 187 184 186 188 187 186 185 185 183 182 181 181 182 181 181 181 182 184 186 186 188 192 195 198 200 202 200 198 197 198 197 197 198 198 197 202 204 203 203 203 204 205 205 206 209 207 205 209 204 195 193 190 196 194 187 190 181 180 181 181 210 160 144 170 235 149 175 192 177 187 185 101 260 237 127 86 121 116 108
191 198 200 199 201 197 188 184 185 187 187 186 185 186 184 183 182 182 183 182 181 182 182 185 187 187 189 192 195 196 196 197 198 197 193 193 195 195 197 199 200 203 204 204 204 204 204 204 206 207 207 208 205 205 207 201 199 197 195 200 198 202 202 191 192 189 191 204 164 159 184 191 174 205 245 338 56 202 270 293 345 11 29 85 93
192 199 201 199 203 199 189 184 184 185 186 185 186 187 185 184 183 182 183 183 183 183 183 186 187 188 190 192 195 196 194 195 197 197 194 192 195 195 195 198 202 204 205 206 206 204 204 204 206 207 206 207 205 204 208 207 205 200 191 197 203 205 212 204 203 205 191 200 203 182 191 200 186 195 207 174 190 229 313 299 315 359 341 297 345
191 194 201 206 204 197 189 183 182 184 186 185 186 187 186 185 183 182 183 184 184 184 185 187 188 189 190 192 195 196 195 195 197 198 196 194 195 195 195 197 200 203 205 206 206 204 202 202 203 205 206 205 204 203 206 208 209 207 197 199 205 204 210 212 212 214 204 204 214 201 202 211 197 195 207 198 183 175 211 254 288 321 293 290 335
188 189 192 207 208 197 189 182 181 185 186 186 186 187 186 185 184 184 184 184 183 184 186 187 189 190 190 192 194 195 196 196 197 200 199 197 198 198 197 199 199 202 205 205 204 203 201 201 202 204 205 204 203 202 203 206 208 212 209 206 209 208 209 214 218 221 214 210 220 221 222 229 215 200 211 220 213 203 215 240 288 308 295 296 293
179 191 188 199 208 200 189 183 182 185 186 186 186 186 186 185 185 185 184 184 183 184 186 186 188 189 189 190 192 194 195 196 198 200 201 200 201 201 200 202 203 203 204 202 201 200 199 201 202 203 204 202 202 201 202 205 208 211 214 215 216 213 212 216 221 225 224 217 218 222 229 237 240 237 227 229 250 259 274 315 332 307 296 300 305
174 184 185 197 207 202 192 185 184 184 185 186 186 186 186 185 185 185 184 184 184 184 185 186 186 187 188 189 191 193 193 194 197 198 200 202 202 203 202 204 207 205 202 200 198 197 197 198 201 203 203 202 202 202 203 205 208 210 213 216 220 217 214 219 224 227 228 224 220 218 228 241 237 241 251 249 256 273 298 315 295 278 279 294 307
174 174 183 195 205 204 196 187 185 185 185 187 186 186 187 185 185 185 184 185 185 185 185 185 185 186 188 188 190 192 192 194 197 197 199 202 202 203 204 204 207 205 201 199 196 195 195 196 199 202 203 203 203 203 205 205 207 211 212 214 219 219 217 220 225 230 230 228 226 217 218 235 240 241 251 253 249 255 263 260 253 256 261 277 290
174 172 183 190 198 203 197 190 188 186 186 187 186 186 186 186 185 184 185 185 185 185 185 184 184 184 187 188 189 191 193 196 199 198 199 201 201 202 204 204 205 204 202 198 194 194 195 196 198 201 202 203 204 204 206 207 208 211 212 215 217 217 219 221 224 230 232 231 232 225 219 225 232 236 241 244 241 236 240 243 245 245 238 246 266
175 174 186 187 193 203 198 193 191 189 188 187 186 185 185 186 186 186 187 186 185 185 185 184 184 184 187 189 189 190 193 197 198 199 199 201 202 201 203 203 202 202 202 197 193 193 195 196 198 200 201 201 201 202 203 205 209 212 212 214 215 214 217 219 222 227 230 230 232 231 228 227 230 235 240 242 236 229 233 238 238 238 237 239 251
182 176 182 177 181 204 206 199 192 190 190 188 186 186 186 186 187 187 187 187 186 186 185 184 185 186 186 187 189 190 193 195 196 197 199 201 201 200 201 202 201 201 199 196 194 194 195 195 197 200 202 200 199 201 201 202 207 212 214 215 213 211 215 219 221 224 227 229 231 231 231 229 230 235 241 244 240 232 232 237 238 235 236 236 240
191 175 176 176 178 198 210 209 199 191 189 189 188 187 187 186 186 187 186 187 188 188 186 185 185 186 185 185 188 189 191 194 194 195 198 200 199 199 200 201 200 199 198 196 195 195 195 196 198 201 202 200 199 199 200 200 204 208 212 215 213 210 213 217 220 224 227 228 228 231 233 231 230 233 237 241 240 235 232 236 240 238 237 237 234
195 178 175 182 185 191 202 212 208 195 189 190 190 189 189 187 186 186 186 187 189 188 187 186 185 185 186 186 187 188 189 192 193 194 196 198 198 198 199 199 199 198 197 197 197 197 197 197 198 200 201 200 199 198 199 198 201 205 208 212 213 210 211 214 217 221 225 228 228 230 232 232 231 233 237 240 240 239 236 235 236 235 238 241 238
196 184 177 182 193 194 193 203 209 198 190 190 191 190 190 189 187 186 187 188 189 189 187 185 184 185 186 186 187 188 189 191 193 194 196 197 197 197 197 198 199 198 198 199 199 199 198 198 198 199 199 200 198 197 199 199 200 203 207 210 212 211 212 214 217 219 222 225 227 229 232 233 233 233 236 240 242 243 243 244 244 242 242 245 245
196 192 183 182 194 197 189 195 204 198 191 191 192 192 192 190 189 188 189 189 188 188 187 185 185 185 185 185 186 188 190 192 194 196 197 199 199 198 197 198 200 200 200 200 201 201 199 198 199 199 197 199 198 197 199 201 201 203 206 209 211 212 213 215 218 221 222 224 226 229 231 232 233 235 236 238 242 243 244 247 249 248 248 249 249
197 199 194 185 185 189 185 188 196 195 192 192 192 194 194 192 191 190 190 189 187 187 187 186 186 186 185 186 187 189 191 193 195 197 198 200 200 200 199 199 201 202 202 201 201 202 201 198 199 199 198 198 198 198 199 201 202 204 206 209 211 212 214 216 218 221 222 223 226 229 230 230 231 233 235 237 240 242 243 245 248 248 249 249 249
191 197 205 191 173 175 179 179 189 195 194 191 192 195 195 194 193 192 190 188 187 187 186 186 187 187 186 187 188 190 192 193 195 198 199 200 201 202 200 200 202 203 203 202 201 202 202 201 200 199 198 198 198 199 200 202 204 205 207 209 211 212 214 216 218 220 222 223 226 229 230 230 230 231 234 236 239 242 243 244 246 247 247 249 250
177 192 215 192 161 170 182 180 186 194 195 192 192 195 196 195 195 193 190 187 186 186 185 185 187 188 188 188 189 191 192 194 196 198 199 200 201 202 201 200 201 203 204 203 201 201 201 201 200 200 199 198 198 199 200 201 205 206 207 209 211 212 214 217 218 221 223 224 225 229 230 230 230 232 234 237 238 240 242 243 244 245 248 250 251
142 177 231 197 166 173 184 185 188 194 197 195 194 195 196 197 196 194 192 189 186 185 185 184 186 188 189 190 191 191 191 193 194 197 199 199 200 201 201 200 200 202 204 204 203 201 200 201 201 201 200 199 198 200 201 200 203 206 207 208 210 212 213 216 219 222 224 226 227 229 231 232 231 232 233 236 238 239 240 243 242 242 244 247 250
149 167 198 198 184 178 181 186 191 195 197 196 194 194 196 196 196 196 195 190 187 186 185 184 185 188 189 189 190 189 190 191 192 194 197 198 199 200 200 199 198 200 204 205 205 202 201 202 203 201 200 199 199 200 202 201 201 203 207 209 210 212 214 216 219 222 224 226 228 231 234 235 234 232 231 232 234 235 235 239 242 242 242 245 249
26 28 3 210 202 192 186 189 194 198 199 198 195 194 195 196 195 196 197 192 187 186 185 185 186 187 187 187 187 187 188 189 190 192 195 197 197 197 199 198 197 199 202 204 205 205 203 203 204 202 201 200 201 203 204 203 201 201 204 209 211 212 215 217 219 223 225 226 228 232 237 239 239 236 234 234 235 235 234 236 238 239 239 242 249
-0 357 342 321 262 210 196 193 199 202 202 202 199 196 197 198 195 195 196 193 188 187 187 187 186 185 184 184 185 186 186 187 189 190 192 194 195 195 196 197 196 197 200 201 203 205 206 205 205 205 204 203 205 207 206 205 204 203 203 207 212 214 215 218 219 221 224 226 228 233 238 240 240 238 237 238 241 243 243 244 246 245 244 243 246
337 332 326 325 315 267 216 204 206 208 207 206 202 199 199 199 197 195 195 194 190 189 189 188 186 183 182 182 183 183 184 186 187 187 188 190 193 193 194 195 196 196 196 198 201 203 206 207 207 207 208 208 209 210 209 208 208 209 208 207 212 215 216 218 219 220 222 224 227 233 237 239 237 235 235 237 242 247 249 251 253 254 253 250 247
320 316 319 321 319 310 287 248 223 214 212 211 206 202 201 201 198 195 194 194 192 190 189 188 186 184 182 182 182 182 183 184 184 184 184 186 189 192 193 194 195 195 194 196 200 202 204 207 208 209 210 211 213 213 212 211 212 215 216 213 213 217 219 220 219 220 221 223 226 230 235 237 237 235 232 231 236 244 249 252 253 254 256 256 253
310 310 318 321 318 310 301 294 274 240 222 217 212 207 203 202 200 195 194 195 192 189 188 187 187 185 183 182 182 181 182 182 182 182 181 183 187 190 192 193 194 194 194 196 199 201 203 206 208 210 211 213 216 217 215 214 216 219 221 219 216 217 221 223 222 221 221 222 225 227 230 233 234 233 231 228 228 233 241 249 251 252 256 258 259
309 308 311 311 307 299 291 289 286 271 243 223 214 210 205 201 200 196 194 195 192 188 186 186 187 186 183 183 182 181 181 180 179 180 181 183 186 188 191 193 194 195 195 196 199 201 202 205 207 209 211 213 218 220 217 215 217 221 223 221 218 218 223 225 223 222 222 222 224 225 228 231 231 231 230 228 227 226 229 236 241 246 250 252 253
312 310 307 303 299 299 298 289 281 276 262 235 215 211 206 200 199 197 193 194 192 188 185 185 186 186 184 184 183 181 181 180 179 181 182 183 185 186 189 192 196 199 199 198 200 202 203 204 205 208 211 214 218 221 218 216 218 220 222 220 218 220 226 228 225 223 222 223 224 224 226 230 231 232 232 230 229 227 227 231 234 240 246 248 250
314 310 306 301 296 293 294 291 278 267 261 245 221 210 205 200 198 196 192 192 192 190 186 185 186 187 185 185 184 182 182 182 181 182 183 184 185 185 187 190 195 200 202 201 202 204 204 204 205 207 210 213 217 220 220 218 217 216 216 216 216 218 223 226 226 225 223 223 224 224 225 228 231 234 234 233 233 231 230 233 238 243 249 252 254
317 312 307 302 297 293 293 294 286 270 255 246 228 209 201 199 197 194 191 191 191 191 188 186 187 187 185 185 186 185 184 184 184 184 185 185 185 185 187 190 195 200 205 205 205 206 207 207 207 207 208 211 216 220 220 219 217 215 213 212 212 214 220 224 225 225 224 223 225 226 226 227 230 234 236 236 237 235 232 232 236 241 245 248 251
318 312 307 303 296 294 295 291 285 273 254 243 231 211 198 196 197 193 190 190 192 192 190 188 187 186 183 184 187 187 185 185 186 186 186 186 185 186 187 190 195 201 206 208 208 209 210 210 210 210 209 210 216 221 221 219 218 217 215 211 207 210 217 221 222 223 223 223 226 228 228 228 229 231 233 235 237 236 231 228 232 238 242 245 248
317 312 310 305 296 292 291 284 275 265 250 239 227 211 198 194 195 194 191 191 193 192 190 187 185 184 183 184 186 187 186 187 187 187 187 186 185 186 187 190 195 200 205 209 211 211 213 214 214 214 212 211 215 219 221 219 218 218 217 211 206 208 214 217 220 222 221 222 225 226 229 232 233 233 234 235 238 238 235 230 230 235 240 243 244
315 313 310 304 295 289 287 283 273 260 246 234 221 208 196 191 193 194 194 194 193 190 186 185 184 184 185 185 186 186 186 187 187 186 187 187 186 187 188 190 195 199 203 208 212 213 215 216 217 218 216 214 214 216 219 219 217 218 218 214 209 208 211 214 217 220 221 224 225 225 228 233 235 236 238 239 240 242 241 239 235 235 239 241 244
319 316 309 301 295 289 285 280 270 253 237 225 216 206 193 188 192 197 197 193 189 186 184 183 184 185 185 185 185 186 185 186 187 186 186 187 188 188 189 191 196 199 201 205 209 213 216 218 218 220 219 218 216 214 217 219 218 218 219 217 213 210 210 212 215 219 222 224 225 225 227 230 232 235 237 239 242 243 244 244 243 241 242 243 247
319 316 308 301 297 293 289 283 268 248 228 218 214 203 189 188 194 198 197 190 184 183 183 182 184 185 185 184 184 183 183 184 186 185 185 186 187 188 189 190 193 197 199 201 205 209 214 217 218 219 218 219 218 214 215 218 219 219 220 219 218 215 211 211 217 220 221 224 226 227 227 228 229 230 231 236 241 241 241 243 245 245 245 246 248
316 312 305 300 297 292 286 281 268 246 223 217 213 197 185 190 195 195 193 187 182 182 181 181 183 184 183 182 181 181 182 183 184 184 184 185 185 186 187 188 190 193 195 198 200 203 209 215 217 218 218 217 215 214 215 217 219 220 220 220 221 220 215 213 218 224 225 227 228 228 228 229 229 227 227 234 241 242 240 242 243 240 239 241 244
315 309 301 297 294 285 273 273 270 244 216 213 210 192 182 188 191 190 190 186 181 181 181 181 182 181 180 179 178 179 181 182 182 183 183 183 184 184 184 185 188 191 194 196 197 199 205 211 214 217 217 215 213 212 215 218 219 221 222 221 223 223 220 216 217 222 229 232 229 224 224 225 222 219 221 228 234 238 239 240 238 234 232 236 239
315 309 305 304 300 285 265 269 275 243 207 205 206 194 187 188 187 188 190 186 181 182 182 180 180 180 177 176 175 176 179 180 181 182 183 183 183 183 183 184 187 191 193 195 197 200 203 207 210 213 214 213 212 211 214 216 216 218 220 221 222 224 223 220 219 220 225 232 232 225 220 213 206 206 212 219 225 234 238 235 231 227 224 226 225
314 312 317 320 315 306 291 296 311 300 222 207 204 196 189 186 186 189 190 185 180 181 182 180 179 178 176 175 175 174 176 179 180 181 183 184 185 186 185 185 189 191 193 194 197 200 202 204 206 210 211 212 211 211 213 211 209 211 215 217 219 222 222 221 220 220 224 231 238 238 234 227 217 211 212 216 223 232 235 228 220 218 216 217 216
316 319 329 335 329 332 346 350 353 358 351 242 202 196 191 188 190 190 187 182 179 179 180 180 178 176 175 175 174 173 175 179 182 184 186 186 188 191 190 190 193 193 192 195 197 199 202 204 205 206 207 209 211 212 212 206 201 207 211 212 215 218 219 219 218 218 221 225 232 236 234 226 218 213 212 216 221 224 224 220 215 212 209 209 210
319 319 329 342 346 356 11 16 22 18 9 10 6 199 193 193 195 191 184 179 176 175 178 179 177 176 176 175 174 175 178 181 181 180 180 180 185 191 193 192 194 197 198 197 197 199 202 204 205 206 206 207 208 209 212 209 203 205 207 208 211 215 217 218 218 215 213 213 216 221 221 215 213 215 217 220 219 214 215 219 216 212 209 207 206
321 319 325 338 349 11 37 43 45 46 38 25 12 350 191 192 195 192 184 178 175 175 178 179 178 178 176 176 178 179 181 184 179 169 165 164 169 181 188 187 189 197 201 200 199 200 203 203 204 205 207 211 212 210 209 208 205 202 200 203 211 214 215 218 218 212 206 205 209 213 216 215 217 219 220 221 213 202 206 215 212 210 212 209 203
322 320 325 337 346 12 47 55 50 52 55 54 46 32 44 184 193 193 187 181 179 182 183 182 184 183 176 176 182 181 180 185 179 162 159 158 153 161 175 178 182 191 198 200 201 202 203 205 207 205 205 208 212 209 204 202 200 198 195 198 206 211 209 212 213 207 201 202 208 212 213 215 215 215 217 218 205 190 196 209 206 204 214 216 208
Height
758 763 766 769 773 776 780 783 787 790 794 798 802 806 808 811 815 817 821 824 826 829 831 833 835 837 839 840 842 843 845 846 846 847 847 848 849 850 852 853 854 854 855 855 856 857 857 857 858 858 859 859 861 861 861 861 862 862 862 862 862 862 863 863 864 865 865 866 866 866 867 868 868 869 869 869 869 870 870 871 870 870 871 872 873
757 762 765 768 772 774 777 780 784 787 791 796 799 803 807 809 813 816 818 822 824 827 829 831 833 835 837 839 840 842 844 845 846 847 847 848 849 851 852 853 853 854 855 855 856 857 857 858 858 858 859 859 860 861 861 861 862 862 862 861 862 863 863 863 864 865 865 865 865 866 866 868 868 868 869 868 868 869 869 870 870 870 871 872 873
759 761 763 766 769 771 775 777 781 784 788 793 797 801 804 807 811 814 816 819 822 825 827 830 832 834 836 838 839 840 842 844 845 846 847 848 849 851 852 852 853 854 855 855 856 857 857 858 858 859 859 859 860 860 861 861 862 862 862 862 863 864 863 864 865 864 864 864 865 866 865 866 869 868 868 868 868 868 869 869 869 869 870 872 872
761 761 762 764 767 769 771 774 777 782 785 789 794 798 801 805 808 811 815 817 820 823 825 828 831 833 835 837 838 839 841 843 844 846 847 848 849 850 851 852 853 854 854 855 856 856 857 858 858 859 859 859 860 861 861 862 862 862 863 864 864 864 863 863 865 864 864 865 866 865 862 864 871 868 866 867 866 866 867 868 869 869 870 872 872
758 760 761 761 763 765 767 771 774 778 782 785 789 794 797 801 805 809 812 815 818 821 824 827 830 832 835 837 838 839 840 842 843 845 846 847 848 849 851 851 852 853 854 855 855 856 857 857 858 859 859 860 860 861 861 861 861 861 862 863 864 864 863 863 865 865 865 866 866 865 864 868 869 865 865 867 864 864 866 867 868 869 869 870 871
754 758 760 758 760 762 765 768 771 774 777 782 786 790 794 798 802 806 810 813 816 819 822 825 828 830 832 834 836 838 839 841 842 843 845 846 847 848 850 851 852 853 853 854 855 855 856 857 858 859 859 860 860 860 861 860 861 861 861 862 863 864 864 864 864 865 866 867 866 865 867 869 866 864 867 869 866 864 864 865 867 867 867 868 870
753 756 759 758 757 758 761 764 766 770 773 778 783 787 791 795 799 803 807 810 814 817 819 823 825 828 830 832 834 836 837 839 841 842 844 845 846 847 848 850 851 852 853 854 855 855 856 857 857 858 859 859 859 860 860 860 861 861 861 862 863 863 864 864 864 865 866 867 866 865 865 866 865 865 866 869 870 868 864 863 865 866 865 866 867
753 757 757 755 753 753 756 759 762 765 770 775 779 783 788 792 796 800 804 807 811 814 817 820 822 825 828 830 833 834 836 838 840 842 843 844 845 846 847 849 850 851 852 853 854 855 856 856 857 858 858 859 859 860 860 860 860 861 862 862 863 863 864 865 864 865 865 866 865 865 865 866 867 866 865 867 869 868 866 863 863 865 864 864 865
748 753 754 751 749 749 750 755 759 762 766 770 774 779 784 789 793 797 801 804 808 811 814 817 820 822 825 828 830 832 835 837 838 840 842 843 844 846 847 848 849 850 852 852 853 854 855 856 857 857 858 859 859 859 860 860 861 861 862 863 863 864 864 865 865 865 865 865 866 866 865 866 867 866 867 867 865 866 867 862 860 863 863 863 866
744 746 749 747 746 746 747 751 756 759 762 767 771 776 781 785 790 793 797 801 804 807 811 814 817 820 823 826 828 830 833 835 837 838 840 842 843 845 846 847 848 849 851 852 853 854 855 856 856 857 858 858 859 859 860 861 861 862 862 863 863 864 864 865 865 866 865 865 866 867 867 867 867 866 866 866 864 866 867 861 859 860 860 863 865
738 741 742 743 745 745 745 747 751 755 759 764 769 773 777 781 785 789 793 797 801 804 807 811 814 817 820 823 825 828 830 833 835 836 838 840 842 843 845 846 847 848 850 851 852 853 854 855 856 857 857 858 858 859 860 860 861 861 862 863 863 864 864 865 865 866 866 866 866 867 868 868 868 867 866 865 865 865 866 863 861 861 861 863 864
732 736 738 742 746 745 742 744 748 752 756 760 765 769 773 777 781 786 790 793 797 800 804 808 811 814 817 820 823 825 828 830 832 834 836 838 839 841 843 844 845 847 848 849 850 852 853 854 855 856 857 857 858 859 859 860 860 861 862 862 863 864 864 865 865 865 866 866 866 867 867 867 866 867 866 866 866 866 867 866 863 863 863 863 863
729 734 739 744 745 740 737 739 744 748 751 755 760 764 768 773 777 781 785 789 793 796 800 804 807 811 814 817 820 823 825 827 829 832 834 836 837 839 840 842 844 845 846 847 849 850 852 852 854 855 856 857 857 858 859 860 860 861 861 862 863 863 864 864 865 865 865 866 866 865 865 865 865 865 865 865 866 866 867 866 864 864 863 862 863
726 731 739 744 741 735 732 734 739 743 747 751 755 760 764 769 773 777 781 785 789 792 796 800 803 807 810 813 817 820 822 825 827 829 831 833 835 837 838 840 841 842 844 845 847 848 850 851 852 854 855 856 857 858 859 859 860 861 861 862 862 863 864 864 864 864 865 865 865 865 865 864 864 864 864 864 864 865 865 864 864 864 863 862 862
727 729 732 736 735 732 728 730 735 738 743 747 751 756 760 764 769 773 777 781 785 789 792 796 800 803 807 810 814 817 819 821 824 826 828 830 832 834 836 837 838 840 841 843 845 847 848 850 851 852 853 855 856 857 858 859 860 860 861 861 862 863 863 863 864 864 864 864 865 865 865 864 864 864 864 864 863 863 863 864 865 866 866 864 861
722 723 723 726 729 729 726 726 731 734 739 743 747 752 756 760 765 769 773 777 781 785 788 792 796 800 803 806 810 813 816 818 821 823 825 827 829 831 833 834 836 838 839 841 843 845 846 848 849 851 852 853 855 856 857 858 859 859 860 861 861 862 862 863 863 863 863 864 864 865 865 864 864 864 864 864 864 864 864 865 865 866 868 868 865
710 713 714 718 723 726 723 723 727 730 735 738 742 747 751 756 761 765 770 774 777 781 784 788 792 796 800 803 806 809 812 815 817 819 822 824 827 828 830 832 834 835 837 839 841 842 844 846 847 849 851 852 853 855 856 857 858 859 859 860 860 861 862 862 863 863 863 863 863 864 864 864 864 864 864 864 864 865 865 866 866 866 867 868 868
699 704 708 712 717 720 719 719 722 725 730 733 738 743 748 752 756 761 765 769 773 777 781 785 788 792 796 799 802 806 808 812 814 816 819 821 823 825 827 829 831 833 834 836 838 840 842 844 845 847 849 850 852 853 855 856 857 858 858 859 860 860 861 861 862 862 862 862 862 862 863 863 864 864 864 864 864 864 865 865 866 865 866 866 867
691 699 704 708 713 717 716 716 718 722 726 729 734 739 744 749 753 757 761 764 769 773 777 781 784 788 791 795 798 802 805 808 811 814 816 818 820 822 824 826 828 830 832 834 836 838 840 841 843 845 846 848 850 851 853 854 855 856 857 858 858 859 860 860 861 861 861 861 861 862 862 863 863 863 863 863 863 863 864 864 864 864 865 865 865
685 693 699 702 710 716 716 713 714 718 723 726 731 735 739 744 749 753 758 762 766 769 773 776 779 783 787 791 795 798 801 805 807 810 813 815 817 819 821 823 825 827 829 831 833 835 837 838 840 842 844 845 847 849 850 852 853 854 855 856 857 858 859 859 860 860 860 861 861 861 862 862 862 862 862 862 862 862 863 863 863 863 864 864 864
680 686 693 697 703 710 715 716 713 714 719 723 727 731 734 739 743 748 753 758 762 765 768 772 775 779 783 786 790 794 798 801 804 807 809 812 814 816 818 820 822 825 826 828 830 832 834 836 837 839 841 843 844 846 848 850 851 853 853 854 855 856 857 858 859 859 859 859 860 860 861 861 861 861 861 861 861 861 862 861 862 862 862 863 863
677 681 688 694 698 703 710 716 715 713 716 719 723 726 730 734 738 743 748 751 756 760 764 767 771 775 778 782 786 790 794 797 800 803 806 808 811 812 815 817 819 822 824 826 828 829 831 833 835 836 838 840 842 843 846 847 849 850 851 853 854 854 855 856 857 857 858 858 858 859 859 859 860 860 860 860 860 860 860 860 860 860 861 861 861
672 675 681 688 694 698 703 711 713 711 711 715 719 722 725 729 733 737 741 745 750 754 759 763 767 770 774 778 782 786 790 793 796 799 802 804 807 809 812 814 816 819 821 823 825 827 828 830 832 834 835 837 839 841 843 844 846 848 849 850 851 852 853 854 855 856 856 857 857 857 858 858 858 858 858 858 858 858 858 858 858 858 859 859 859
667 671 676 682 688 693 697 704 708 707 708 712 715 718 721 725 728 732 735 740 745 750 755 759 762 766 770 774 778 782 786 789 792 795 797 800 803 806 808 811 813 815 817 820 822 824 826 827 829 831 832 835 836 838 840 842 843 845 846 848 849 850 851 852 853 854 854 855 855 856 856 856 857 857 857 857 857 857 857 857 857 857 857 857 857
667 670 672 677 683 689 693 697 701 703 705 708 711 714 717 720 723 726 730 735 740 745 749 754 758 762 766 770 774 777 781 784 787 790 793 796 799 802 805 807 809 812 814 817 819 821 823 824 826 828 829 831 833 835 837 839 840 842 843 845 846 848 849 850 851 851 852 853 853 854 854 854 855 855 855 855 855 855 856 856 856 856 856 856 856
668 670 671 674 679 685 687 690 695 699 701 704 708 711 713 716 719 722 726 730 735 739 744 749 754 757 761 765 769 772 776 779 783 786 789 792 795 797 801 803 806 808 810 813 815 818 820 821 823 825 826 828 830 832 834 836 838 839 841 842 844 845 846 847 848 849 850 851 851 851 852 852 853 853 853 853 853 854 854 854 854 854 854 854 854
667 670 672 673 677 682 683 685 690 694 697 700 704 707 710 713 716 719 722 726 730 735 739 744 749 753 756 760 763 767 771 775 778 782 785 788 790 793 796 799 802 804 807 809 811 814 816 818 820 822 823 825 827 829 831 833 835 836 838 840 841 842 843 845 845 846 847 848 848 849 849 850 850 851 851 852 852 852 852 852 852 852 852 852 852
671 675 676 676 678 680 681 683 687 691 695 697 701 704 707 710 714 716 719 722 726 730 734 739 744 748 751 754 758 762 766 770 774 778 781 784 786 789 792 795 799 801 803 805 808 810 813 815 817 818 820 822 824 826 828 830 832 834 835 837 838 839 841 841 843 843 844 845 845 846 846 847 847 848 849 850 850 850 850 850 850 850 851 851 850
676 679 679 679 680 680 682 684 686 689 692 694 698 702 705 708 712 714 716 719 723 726 730 735 739 742 746 750 754 759 762 766 771 774 777 780 783 786 789 792 795 797 800 802 804 807 809 812 814 815 817 819 820 822 824 826 828 830 832 834 835 836 838 839 840 840 841 842 843 843 843 844 844 845 846 847 848 848 848 848 848 848 849 849 848
682 683 683 682 681 680 682 684 686 688 690 692 695 699 702 705 708 711 713 715 719 723 727 730 734 737 742 747 751 755 759 763 766 770 773 776 779 783 785 788 791 794 797 799 801 804 806 808 810 812 813 815 816 818 819 821 824 826 829 831 832 833 835 836 837 838 839 839 840 840 840 841 842 842 843 844 844 845 846 846 846 847 847 847 846
691 692 690 686 684 682 682 685 686 687 689 691 693 696 699 701 704 708 710 712 716 720 723 726 730 734 739 743 748 752 755 759 762 766 770 773 776 779 782 785 788 791 793 796 798 800 802 804 807 808 810 811 812 813 815 817 820 823 825 827 829 830 831 833 834 835 836 836 837 838 838 838 839 840 840 841 841 842 843 843 844 844 844 844 844
696 697 695 691 688 684 683 684 685 686 688 689 691 694 696 699 701 704 707 710 713 717 720 724 728 732 736 740 744 748 751 755 759 762 766 769 773 776 778 781 784 787 790 792 794 797 799 801 803 805 806 807 808 810 811 813 816 819 821 824 826 827 828 829 831 831 833 833 834 835 835 835 836 837 837 838 838 839 839 840 840 841 841 841 841
699 699 696 693 690 686 683 682 682 684 686 687 689 691 693 695 698 701 704 707 710 714 719 723 726 730 733 736 740 744 748 752 755 759 762 766 770 773 775 778 780 783 786 789 791 793 795 798 799 801 803 804 805 807 808 810 812 815 818 820 822 824 825 826 827 828 829 830 831 832 832 832 833 834 834 835 835 836 836 836 837 837 837 837 837
703 701 697 694 691 689 686 684 683 683 684 685 687 688 691 694 696 699 703 705 707 712 716 720 724 727 730 734 737 740 744 748 752 756 759 763 766 769 772 775 778 780 783 785 787 790 792 794 796 798 799 801 802 803 804 807 809 812 814 816 819 821 822 822 824 825 826 827 828 829 829 829 830 831 831 832 833 833 833 833 834 834 833 833 833
705 703 700 696 693 689 687 686 684 682 681 682 683 685 688 691 694 697 700 703 705 709 713 717 721 725 728 732 734 738 741 745 748 752 756 759 762 765 769 772 774 777 779 781 784 786 788 790 792 794 796 797 799 800 801 803 806 808 811 813 816 818 819 819 820 821 823 824 825 826 826 826 827 827 828 829 830 831 831 831 831 831 830 830 830
704 701 699 695 691 687 685 684 683 682 680 678 679 681 684 687 690 692 696 700 703 706 710 714 718 721 725 728 731 735 738 742 745 749 752 755 758 762 765 769 771 774 776 779 781 783 785 787 789 791 793 794 795 796 798 800 802 805 808 811 813 815 815 816 817 818 820 821 822 823 823 823 824 824 825 825 826 828 829 829 829 829 828 828 827
702 699 696 693 690 685 682 681 680 679 678 675 674 676 679 682 686 689 692 697 700 703 706 710 713 717 721 725 728 732 735 738 742 744 747 751 754 757 761 765 768 770 773 775 777 779 781 783 785 787 789 790 792 793 795 797 799 802 805 808 810 811 812 813 814 815 817 817 818 819 820 820 821 821 821 822 823 825 826 827 827 827 826 825 825
700 696 692 690 686 681 679 678 676 675 674 672 671 671 674 678 681 684 689 693 696 699 702 706 709 712 716 721 725 728 731 735 738 740 743 747 750 754 757 761 764 766 768 771 774 776 778 779 781 783 784 787 788 790 791 793 795 798 801 804 806 808 809 810 811 812 813 814 814 815 816 817 817 817 818 819 820 821 823 824 824 824 824 823 822
698 695 690 687 683 679 676 676 674 671 670 669 668 667 670 674 677 680 684 688 691 694 697 701 705 709 713 717 722 725 728 731 734 737 740 743 746 750 753 757 760 762 765 767 770 772 774 775 777 779 781 783 784 785 787 789 791 794 797 800 803 805 806 807 808 809 810 810 811 811 812 812 813 814 815 816 816 817 819 820 821 821 821 820 820
697 693 689 685 680 675 673 671 669 667 666 665 664 664 666 670 673 676 679 682 685 689 693 698 702 706 710 714 717 721 724 727 731 734 737 740 743 746 750 753 756 759 761 764 766 768 770 772 774 776 777 779 780 781 783 784 787 790 792 796 799 800 802 803 804 805 806 806 807 807 807 808 809 810 811 812 813 814 815 816 818 818 818 818 818
698 693 689 684 677 671 669 666 664 662 662 661 661 661 663 667 671 673 675 677 682 686 691 696 700 703 706 710 713 717 720 724 728 732 735 738 740 743 746 749 752 755 757 760 762 764 766 768 770 772 773 775 776 777 779 780 783 786 788 792 794 796 798 799 800 801 802 802 802 803 803 803 804 806 807 808 809 810 811 812 814 814 815 815 815
697 692 688 682 674 668 665 662 659 658 658 658 657 658 660 664 668 670 671 675 680 685 690 693 696 700 703 706 710 713 717 721 725 728 732 734 737 740 742 745 748 751 753 756 758 760 762 764 766 768 769 771 772 774 775 777 779 782 784 787 790 792 794 796 796 797 797 797 798 798 799 799 800 801 803 804 805 806 807 808 809 811 812 813 813
698 692 687 679 672 667 662 658 655 654 654 655 655 656 658 662 665 668 671 675 679 683 687 690 694 697 699 703 706 710 714 718 721 725 728 731 734 736 739 742 745 747 750 753 755 758 760 761 763 764 766 768 770 771 772 774 776 779 781 783 786 788 790 792 792 793 793 793 794 794 795 796 797 798 800 801 802 803 804 805 806 808 809 810 810
699 693 686 678 672 667 662 658 654 651 652 653 653 654 657 660 664 668 672 675 678 682 685 688 691 694 697 700 704 707 711 715 718 721 725 728 731 733 736 739 742 744 747 750 752 755 757 758 760 761 763 765 767 768 769 771 773 775 777 779 782 784 786 788 789 789 790 790 790 791 792 793 794 795 797 798 800 801 801 802 803 805 806 806 806
699 693 686 679 671 665 661 658 653 650 651 652 652 653 657 660 664 669 672 674 678 681 684 686 689 691 694 697 701 705 708 711 715 718 721 724 727 730 732 735 738 741 744 746 749 752 754 755 757 758 759 761 763 765 766 767 769 772 773 776 778 779 781 783 785 786 787 787 787 788 789 790 792 793 795 796 797 798 800 800 801 802 802 803 803
699 692 684 677 670 663 659 657 654 651 650 652 653 654 657 661 665 669 671 673 677 681 683 685 687 689 692 695 698 702 705 709 712 716 719 721 724 726 729 732 735 737 740 742 745 747 750 752 753 754 756 757 759 761 762 763 765 767 769 771 773 775 777 779 781 783 784 785 785 787 788 789 791 792 793 794 795 796 797 798 798 799 799 800 801
699 692 684 677 670 664 661 659 657 654 652 653 653 655 658 662 665 668 670 673 676 679 682 684 686 688 690 693 695 698 702 706 709 713 716 719 721 723 725 728 730 733 735 738 741 743 745 747 749 750 752 753 755 757 758 759 760 763 764 766 768 770 772 775 777 780 782 784 785 786 787 788 789 790 791 791 792 793 794 795 796 796 797 799 799
699 691 685 679 673 668 664 662 660 658 657 655 655 656 659 662 665 667 669 671 675 678 680 682 684 686 688 691 693 696 700 703 706 710 712 715 717 720 722 724 726 728 731 733 736 738 740 742 744 746 748 750 751 752 754 755 756 757 760 762 764 766 768 770 773 777 780 783 784 784 785 786 787 787 788 788 789 791 792 793 794 795 796 797 796
699 693 687 681 675 671 668 665 663 661 660 659 658 659 660 662 664 665 667 670 673 676 679 681 683 684 687 689 691 694 697 700 703 706 708 710 713 715 718 721 723 725 727 729 731 734 736 738 740 742 744 746 747 748 750 751 752 754 756 758 760 762 765 767 770 774 777 780 781 781 781 782 783 784 785 786 787 789 791 792 793 794 794 794 794
700 695 688 682 678 674 670 667 666 664 663 663 663 662 662 662 663 664 666 668 671 674 676 678 680 681 683 685 688 691 694 697 699 702 705 707 710 713 715 717 720 722 724 726 728 730 733 735 737 739 740 742 744 745 747 749 750 752 754 756 758 760 762 764 767 770 774 776 777 777 777 778 780 781 782 783 784 786 788 790 790 791 792 792 792
702 697 690 684 680 675 671 669 668 667 667 667 667 666 664 664 664 665 666 667 670 671 673 674 676 677 679 682 684 686 690 693 695 698 702 706 709 712 714 716 718 720 722 725 726 728 731 733 734 735 737 740 742 743 745 747 748 750 753 754 756 758 760 761 763 767 770 772 772 773 774 775 776 777 778 779 780 782 785 786 787 788 790 790 791